Time,TemperatureF,DewpointF,PressureIn,WindDirection,WindDirectionDegrees,WindSpeedMPH,WindSpeedGustMPH,Humidity,HourlyPrecipIn,Conditions,Clouds,dailyrainin,SoftwareType,DateUTC
2013-06-09 00:01:00,61.6,60.4,30.02,West,276,0.0,15.0,96,0.00,,,0.00,Wunderground v.1.15,2013-06-09 04:01:00,
2013-06-09 00:11:00,61.4,60.5,30.02,West,276,0.0,15.0,97,0.00,,,0.00,Wunderground v.1.15,2013-06-09 04:11:00,
2013-06-09 00:21:00,61.1,60.0,30.03,West,276,0.0,15.0,96,0.00,,,0.00,Wunderground v.1.15,2013-06-09 04:21:00,
2013-06-09 00:31:00,60.8,59.9,30.03,West,276,0.0,15.0,97,0.00,,,0.00,Wunderground v.1.15,2013-06-09 04:31:00,
2013-06-09 00:41:00,60.5,59.6,30.03,West,275,0.0,15.0,97,0.00,,,0.00,Wunderground v.1.15,2013-06-09 04:41:00,
2013-06-09 00:51:00,60.3,59.4,30.04,West,275,0.0,15.0,97,0.00,,,0.00,Wunderground v.1.15,2013-06-09 04:51:00,
2013-06-09 00:56:00,60.2,59.3,30.04,West,275,0.0,15.0,97,0.00,,,0.00,Wunderground v.1.15,2013-06-09 04:56:00,
2013-06-09 01:06:00,59.9,59.0,30.05,West,275,0.0,15.0,97,0.00,,,0.00,Wunderground v.1.15,2013-06-09 05:06:00,
2013-06-09 01:11:00,59.8,58.9,30.05,West,276,0.0,15.0,97,0.00,,,0.00,Wunderground v.1.15,2013-06-09 05:11:00,
2013-06-09 01:21:00,59.5,58.6,30.05,West,275,0.0,15.0,97,0.00,,,0.00,Wunderground v.1.15,2013-06-09 05:21:00,
2013-06-09 01:31:00,59.2,58.3,30.06,West,276,0.0,15.0,97,0.00,,,0.00,Wunderground v.1.15,2013-06-09 05:31:00,
2013-06-09 01:41:00,58.9,58.1,30.06,West,275,0.0,15.0,97,0.00,,,0.00,Wunderground v.1.15,2013-06-09 05:41:00,
2013-06-09 01:51:00,58.8,58.0,30.06,West,276,0.0,15.0,97,0.00,,,0.00,Wunderground v.1.15,2013-06-09 05:51:00,
2013-06-09 01:56:00,58.9,58.1,30.06,West,276,0.0,15.0,97,0.00,,,0.00,Wunderground v.1.15,2013-06-09 05:56:00,
2013-06-09 02:06:00,58.8,58.0,30.05,West,276,0.0,15.0,97,0.00,,,0.00,Wunderground v.1.15,2013-06-09 06:06:00,
2013-06-09 02:11:00,58.7,57.9,30.05,West,276,0.0,15.0,97,0.00,,,0.00,Wunderground v.1.15,2013-06-09 06:11:00,
2013-06-09 02:21:00,58.5,57.7,30.05,West,276,0.0,15.0,97,0.00,,,0.00,Wunderground v.1.15,2013-06-09 06:21:00,
2013-06-09 02:31:00,58.4,57.8,30.05,West,275,0.0,15.0,98,0.00,,,0.00,Wunderground v.1.15,2013-06-09 06:31:00,
2013-06-09 02:41:00,58.4,57.8,30.05,West,276,0.0,15.0,98,0.00,,,0.00,Wunderground v.1.15,2013-06-09 06:41:00,
2013-06-09 02:51:00,58.3,57.7,30.05,West,276,0.0,15.0,98,0.00,,,0.00,Wunderground v.1.15,2013-06-09 06:51:00,
2013-06-09 03:01:00,58.1,57.3,30.05,West,276,0.0,15.0,97,0.00,,,0.00,Wunderground v.1.15,2013-06-09 07:01:00,
2013-06-09 03:11:00,57.9,57.3,30.05,NNW,330,0.0,15.0,98,0.00,,,0.00,Wunderground v.1.15,2013-06-09 07:11:00,
2013-06-09 03:16:00,57.8,57.0,30.06,NNW,330,0.0,15.0,97,0.00,,,0.00,Wunderground v.1.15,2013-06-09 07:16:00,
2013-06-09 03:26:00,57.6,57.0,30.06,NNW,330,0.0,15.0,98,0.00,,,0.00,Wunderground v.1.15,2013-06-09 07:26:00,
2013-06-09 03:36:00,57.5,56.9,30.06,NNW,330,0.0,15.0,98,0.00,,,0.00,Wunderground v.1.15,2013-06-09 07:36:00,
2013-06-09 03:41:00,57.5,56.9,30.06,NNW,330,0.0,15.0,98,0.00,,,0.00,Wunderground v.1.15,2013-06-09 07:41:00,
2013-06-09 03:51:00,57.5,56.9,30.06,NE,51,0.0,15.0,98,0.00,,,0.00,Wunderground v.1.15,2013-06-09 07:51:00,
2013-06-09 04:01:00,57.1,56.3,30.06,NE,51,0.0,15.0,97,0.00,,,0.00,Wunderground v.1.15,2013-06-09 08:01:00,
2013-06-09 04:11:00,56.9,56.1,30.07,NE,51,0.0,15.0,97,0.00,,,0.00,Wunderground v.1.15,2013-06-09 08:11:00,
2013-06-09 04:16:00,56.7,55.9,30.07,NE,51,0.0,15.0,97,0.00,,,0.00,Wunderground v.1.15,2013-06-09 08:16:00,
2013-06-09 04:21:00,56.5,55.7,30.06,NE,50,0.0,15.0,97,0.00,,,0.00,Wunderground v.1.15,2013-06-09 08:21:00,
2013-06-09 04:31:00,56.1,55.3,30.07,NE,50,0.0,15.0,97,0.00,,,0.00,Wunderground v.1.15,2013-06-09 08:31:00,
2013-06-09 04:36:00,56.0,55.2,30.07,NE,50,0.0,15.0,97,0.00,,,0.00,Wunderground v.1.15,2013-06-09 08:36:00,
2013-06-09 04:41:00,55.9,55.1,30.07,NE,49,0.0,15.0,97,0.00,,,0.00,Wunderground v.1.15,2013-06-09 08:41:00,
2013-06-09 04:46:00,55.8,55.2,30.07,NE,50,0.0,15.0,98,0.00,,,0.00,Wunderground v.1.15,2013-06-09 08:46:00,
2013-06-09 04:56:00,55.7,55.1,30.08,NE,51,0.0,15.0,98,0.00,,,0.00,Wunderground v.1.15,2013-06-09 08:56:00,
2013-06-09 05:01:00,55.6,55.0,30.08,NE,51,0.0,15.0,98,0.00,,,0.00,Wunderground v.1.15,2013-06-09 09:01:00,
2013-06-09 05:11:00,55.3,54.5,30.09,NE,51,0.0,15.0,97,0.00,,,0.00,Wunderground v.1.15,2013-06-09 09:11:00,
2013-06-09 05:21:00,55.1,54.5,30.09,NE,49,0.0,15.0,98,0.00,,,0.00,Wunderground v.1.15,2013-06-09 09:21:00,
2013-06-09 05:31:00,55.0,54.4,30.09,NE,51,0.0,15.0,98,0.00,,,0.00,Wunderground v.1.15,2013-06-09 09:31:00,
2013-06-09 05:36:00,55.0,54.4,30.10,NE,51,0.0,15.0,98,0.00,,,0.00,Wunderground v.1.15,2013-06-09 09:36:00,
2013-06-09 05:41:00,55.0,54.4,30.10,NE,51,0.0,15.0,98,0.00,,,0.00,Wunderground v.1.15,2013-06-09 09:41:00,
2013-06-09 05:46:00,55.1,54.5,30.10,NE,51,0.0,15.0,98,0.00,,,0.00,Wunderground v.1.15,2013-06-09 09:46:00,
2013-06-09 05:51:00,55.4,54.8,30.10,NE,51,0.0,15.0,98,0.00,,,0.00,Wunderground v.1.15,2013-06-09 09:51:00,
2013-06-09 06:01:00,55.5,54.9,30.10,NE,51,0.0,15.0,98,0.00,,,0.00,Wunderground v.1.15,2013-06-09 10:01:00,
2013-06-09 06:06:00,55.6,55.0,30.11,NE,51,0.0,15.0,98,0.00,,,0.00,Wunderground v.1.15,2013-06-09 10:06:00,
2013-06-09 06:11:00,55.9,55.3,30.11,NE,51,0.0,15.0,98,0.00,,,0.00,Wunderground v.1.15,2013-06-09 10:11:00,
2013-06-09 06:26:00,57.8,57.2,30.12,NE,51,0.0,15.0,98,0.00,,,0.00,Wunderground v.1.15,2013-06-09 10:26:00,
2013-06-09 06:31:00,57.9,57.1,30.12,NE,51,0.0,15.0,97,0.00,,,0.00,Wunderground v.1.15,2013-06-09 10:31:00,
2013-06-09 06:41:00,57.7,56.6,30.12,NE,51,0.0,15.0,96,0.00,,,0.00,Wunderground v.1.15,2013-06-09 10:41:00,
2013-06-09 06:51:00,58.0,56.9,30.13,NE,51,0.0,15.0,96,0.00,,,0.00,Wunderground v.1.15,2013-06-09 10:51:00,
2013-06-09 07:01:00,58.8,58.0,30.13,NE,47,0.0,15.0,97,0.00,,,0.00,Wunderground v.1.15,2013-06-09 11:01:00,
2013-06-09 07:06:00,59.3,58.2,30.13,NE,47,0.0,15.0,96,0.00,,,0.00,Wunderground v.1.15,2013-06-09 11:06:00,
2013-06-09 07:16:00,60.0,58.6,30.13,NE,42,0.0,15.0,95,0.00,,,0.00,Wunderground v.1.15,2013-06-09 11:16:00,
2013-06-09 07:21:00,60.3,58.9,30.14,NE,44,0.0,15.0,95,0.00,,,0.00,Wunderground v.1.15,2013-06-09 11:21:00,
2013-06-09 07:31:00,60.9,59.2,30.13,NE,54,0.0,15.0,94,0.00,,,0.00,Wunderground v.1.15,2013-06-09 11:31:00,
2013-06-09 07:36:00,61.4,59.7,30.13,NNE,30,1.0,15.0,94,0.00,,,0.00,Wunderground v.1.15,2013-06-09 11:36:00,
2013-06-09 07:46:00,62.4,59.7,30.14,NW,311,1.0,15.0,91,0.00,,,0.00,Wunderground v.1.15,2013-06-09 11:46:00,
2013-06-09 07:51:00,63.3,59.4,30.13,NNW,329,1.0,1.0,87,0.00,,,0.00,Wunderground v.1.15,2013-06-09 11:51:00,
2013-06-09 08:01:00,64.7,59.1,30.13,NNW,335,0.0,15.0,82,0.00,,,0.00,Wunderground v.1.15,2013-06-09 12:01:00,
2013-06-09 08:11:00,65.3,58.3,30.13,NW,319,1.0,1.0,78,0.00,,,0.00,Wunderground v.1.15,2013-06-09 12:11:00,
2013-06-09 08:26:00,65.8,58.4,30.13,NW,309,2.0,15.0,77,0.00,,,0.00,Wunderground v.1.15,2013-06-09 12:26:00,
2013-06-09 08:36:00,66.8,59.0,30.13,WSW,252,1.0,15.0,76,0.00,,,0.00,Wunderground v.1.15,2013-06-09 12:36:00,
2013-06-09 08:46:00,67.0,58.8,30.14,NW,310,1.0,15.0,75,0.00,,,0.00,Wunderground v.1.15,2013-06-09 12:46:00,
2013-06-09 08:51:00,67.3,59.1,30.13,NW,321,1.0,15.0,75,0.00,,,0.00,Wunderground v.1.15,2013-06-09 12:51:00,
2013-06-09 09:01:00,68.3,59.3,30.14,NNW,344,1.0,15.0,73,0.00,,,0.00,Wunderground v.1.15,2013-06-09 13:01:00,
2013-06-09 09:06:00,68.6,59.6,30.14,WNW,299,1.0,15.0,73,0.00,,,0.00,Wunderground v.1.15,2013-06-09 13:06:00,
2013-06-09 09:16:00,69.4,60.0,30.14,WNW,294,1.0,15.0,72,0.00,,,0.00,Wunderground v.1.15,2013-06-09 13:16:00,
2013-06-09 09:26:00,70.1,60.3,30.13,NW,308,1.0,15.0,71,0.00,,,0.00,Wunderground v.1.15,2013-06-09 13:26:00,
2013-06-09 09:31:00,70.4,59.7,30.14,NNW,347,1.0,15.0,69,0.00,,,0.00,Wunderground v.1.15,2013-06-09 13:31:00,
2013-06-09 09:46:00,72.2,59.8,30.14,West,271,0.0,15.0,65,0.00,,,0.00,Wunderground v.1.15,2013-06-09 13:46:00,
2013-06-09 09:56:00,72.1,59.2,30.14,NW,321,2.0,15.0,64,0.00,,,0.00,Wunderground v.1.15,2013-06-09 13:56:00,
2013-06-09 10:06:00,72.1,59.7,30.14,WNW,291,2.0,15.0,65,0.00,,,0.00,Wunderground v.1.15,2013-06-09 14:06:00,
2013-06-09 10:16:00,73.0,59.7,30.14,SW,230,1.0,15.0,63,0.00,,,0.00,Wunderground v.1.15,2013-06-09 14:16:00,
2013-06-09 10:21:00,74.5,61.5,30.14,NNE,18,1.0,15.0,64,0.00,,,0.00,Wunderground v.1.15,2013-06-09 14:21:00,
2013-06-09 10:36:00,74.4,60.5,30.14,WNW,294,1.0,15.0,62,0.00,,,0.00,Wunderground v.1.15,2013-06-09 14:36:00,
2013-06-09 10:46:00,74.1,59.8,30.14,West,271,2.0,2.0,61,0.00,,,0.00,Wunderground v.1.15,2013-06-09 14:46:00,
2013-06-09 10:56:00,75.4,60.1,30.14,West,263,1.0,15.0,59,0.00,,,0.00,Wunderground v.1.15,2013-06-09 14:56:00,
2013-06-09 11:06:00,75.0,59.7,30.14,NNW,334,1.0,15.0,59,0.00,,,0.00,Wunderground v.1.15,2013-06-09 15:06:00,
2013-06-09 11:16:00,75.1,60.3,30.14,South,190,1.0,15.0,60,0.00,,,0.00,Wunderground v.1.15,2013-06-09 15:16:00,
2013-06-09 11:26:00,75.4,58.6,30.14,West,280,1.0,15.0,56,0.00,,,0.00,Wunderground v.1.15,2013-06-09 15:26:00,
2013-06-09 11:31:00,75.3,60.0,30.13,North,358,1.0,15.0,59,0.00,,,0.00,Wunderground v.1.15,2013-06-09 15:31:00,
2013-06-09 11:36:00,75.5,58.2,30.13,WNW,282,1.0,15.0,55,0.00,,,0.00,Wunderground v.1.15,2013-06-09 15:36:00,
2013-06-09 11:41:00,75.3,59.0,30.13,NNE,12,1.0,15.0,57,0.00,,,0.00,Wunderground v.1.15,2013-06-09 15:41:00,
2013-06-09 11:51:00,74.8,59.0,30.13,SW,225,2.0,2.0,58,0.00,,,0.00,Wunderground v.1.15,2013-06-09 15:51:00,
2013-06-09 12:01:00,75.7,58.4,30.13,WNW,298,1.0,15.0,55,0.00,,,0.00,Wunderground v.1.15,2013-06-09 16:01:00,
2013-06-09 12:06:00,75.1,58.3,30.13,North,351,1.0,15.0,56,0.00,,,0.00,Wunderground v.1.15,2013-06-09 16:06:00,
2013-06-09 12:21:00,76.8,60.4,30.13,NNE,13,1.0,15.0,57,0.00,,,0.00,Wunderground v.1.15,2013-06-09 16:21:00,
2013-06-09 12:31:00,76.0,59.2,30.12,North,4,2.0,2.0,56,0.00,,,0.00,Wunderground v.1.15,2013-06-09 16:31:00,
2013-06-09 12:41:00,75.9,59.1,30.12,North,6,1.0,15.0,56,0.00,,,0.00,Wunderground v.1.15,2013-06-09 16:41:00,
2013-06-09 12:51:00,77.2,58.7,30.11,SW,236,1.0,15.0,53,0.00,,,0.00,Wunderground v.1.15,2013-06-09 16:51:00,
2013-06-09 12:56:00,77.8,59.3,30.11,NNW,345,1.0,15.0,53,0.00,,,0.00,Wunderground v.1.15,2013-06-09 16:56:00,
2013-06-09 13:06:00,78.3,59.8,30.11,NNE,18,1.0,3.0,53,0.00,,,0.00,Wunderground v.1.15,2013-06-09 17:06:00,
2013-06-09 13:11:00,77.7,59.2,30.12,NNW,338,1.0,15.0,53,0.00,,,0.00,Wunderground v.1.15,2013-06-09 17:11:00,
2013-06-09 13:21:00,77.3,59.9,30.11,WNW,289,1.0,15.0,55,0.00,,,0.00,Wunderground v.1.15,2013-06-09 17:21:00,
2013-06-09 13:26:00,77.0,58.6,30.11,WNW,285,1.0,15.0,53,0.00,,,0.00,Wunderground v.1.15,2013-06-09 17:26:00,
2013-06-09 13:36:00,76.5,59.6,30.11,ENE,77,1.0,2.0,56,0.00,,,0.00,Wunderground v.1.15,2013-06-09 17:36:00,
2013-06-09 13:46:00,77.5,60.1,30.11,East,89,1.0,15.0,55,0.00,,,0.00,Wunderground v.1.15,2013-06-09 17:46:00,
2013-06-09 13:51:00,77.1,60.2,30.11,WNW,288,1.0,1.0,56,0.00,,,0.00,Wunderground v.1.15,2013-06-09 17:51:00,
2013-06-09 14:01:00,76.4,59.0,30.10,NW,304,1.0,1.0,55,0.00,,,0.00,Wunderground v.1.15,2013-06-09 18:01:00,
2013-06-09 14:11:00,77.0,59.1,30.10,NNW,333,1.0,15.0,54,0.00,,,0.00,Wunderground v.1.15,2013-06-09 18:11:00,
2013-06-09 14:21:00,76.6,59.2,30.10,SSE,166,1.0,1.0,55,0.00,,,0.00,Wunderground v.1.15,2013-06-09 18:21:00,
2013-06-09 14:41:00,76.4,59.5,30.10,SSW,204,1.0,15.0,56,0.00,,,0.00,Wunderground v.1.15,2013-06-09 18:41:00,
2013-06-09 14:51:00,77.1,57.6,30.10,WSW,250,1.0,15.0,51,0.00,,,0.00,Wunderground v.1.15,2013-06-09 18:51:00,
2013-06-09 14:56:00,77.0,58.6,30.10,SW,236,1.0,15.0,53,0.00,,,0.00,Wunderground v.1.15,2013-06-09 18:56:00,
2013-06-09 15:06:00,76.8,59.9,30.10,WSW,243,0.0,15.0,56,0.00,,,0.00,Wunderground v.1.15,2013-06-09 19:06:00,
2013-06-09 15:11:00,76.0,60.2,30.11,WNW,301,0.0,15.0,58,0.00,,,0.00,Wunderground v.1.15,2013-06-09 19:11:00,
2013-06-09 15:16:00,75.5,60.6,30.11,WNW,290,0.0,15.0,60,0.00,,,0.00,Wunderground v.1.15,2013-06-09 19:16:00,
2013-06-09 15:26:00,74.7,60.4,30.11,NNW,335,0.0,15.0,61,0.00,,,0.00,Wunderground v.1.15,2013-06-09 19:26:00,
2013-06-09 15:31:00,74.9,61.5,30.10,NE,44,0.0,15.0,63,0.00,,,0.00,Wunderground v.1.15,2013-06-09 19:31:00,
2013-06-09 15:36:00,75.2,61.3,30.10,SW,215,1.0,15.0,62,0.00,,,0.00,Wunderground v.1.15,2013-06-09 19:36:00,
2013-06-09 15:46:00,75.6,61.2,30.10,SW,230,1.0,15.0,61,0.00,,,0.00,Wunderground v.1.15,2013-06-09 19:46:00,
2013-06-09 16:01:00,75.5,60.6,30.10,South,178,1.0,1.0,60,0.00,,,0.00,Wunderground v.1.15,2013-06-09 20:01:00,
2013-06-09 16:06:00,75.2,61.3,30.10,SSE,155,1.0,15.0,62,0.00,,,0.00,Wunderground v.1.15,2013-06-09 20:06:00,
2013-06-09 16:21:00,75.1,62.1,30.10,East,87,1.0,15.0,64,0.00,,,0.00,Wunderground v.1.15,2013-06-09 20:21:00,
2013-06-09 16:26:00,74.9,61.9,30.10,SSE,147,1.0,15.0,64,0.00,,,0.00,Wunderground v.1.15,2013-06-09 20:26:00,
2013-06-09 16:31:00,74.9,61.5,30.09,SE,128,0.0,15.0,63,0.00,,,0.00,Wunderground v.1.15,2013-06-09 20:31:00,
2013-06-09 16:41:00,75.1,62.5,30.09,ESE,104,0.0,15.0,65,0.00,,,0.00,Wunderground v.1.15,2013-06-09 20:41:00,
2013-06-09 16:51:00,75.3,61.4,30.09,SSW,205,1.0,15.0,62,0.00,,,0.00,Wunderground v.1.15,2013-06-09 20:51:00,
2013-06-09 16:56:00,75.4,61.0,30.09,SW,228,1.0,15.0,61,0.00,,,0.00,Wunderground v.1.15,2013-06-09 20:56:00,
2013-06-09 17:06:00,75.7,61.8,30.09,East,84,0.0,15.0,62,0.00,,,0.00,Wunderground v.1.15,2013-06-09 21:06:00,
2013-06-09 17:16:00,75.6,61.2,30.09,SSW,194,1.0,15.0,61,0.00,,,0.00,Wunderground v.1.15,2013-06-09 21:16:00,
2013-06-09 17:21:00,75.6,61.2,30.09,SE,144,1.0,1.0,61,0.00,,,0.00,Wunderground v.1.15,2013-06-09 21:21:00,
2013-06-09 17:36:00,75.2,61.3,30.09,ESE,104,1.0,15.0,62,0.00,,,0.00,Wunderground v.1.15,2013-06-09 21:36:00,
2013-06-09 17:41:00,75.0,61.1,30.09,SE,128,1.0,1.0,62,0.00,,,0.00,Wunderground v.1.15,2013-06-09 21:41:00,
2013-06-09 17:51:00,75.2,61.3,30.09,SSE,156,0.0,15.0,62,0.00,,,0.00,Wunderground v.1.15,2013-06-09 21:51:00,
2013-06-09 18:01:00,74.9,61.5,30.09,SE,144,0.0,15.0,63,0.00,,,0.00,Wunderground v.1.15,2013-06-09 22:01:00,
2013-06-09 18:11:00,74.3,61.3,30.09,SE,132,0.0,15.0,64,0.00,,,0.00,Wunderground v.1.15,2013-06-09 22:11:00,
2013-06-09 18:16:00,74.4,61.9,30.09,WSW,239,0.0,15.0,65,0.00,,,0.00,Wunderground v.1.15,2013-06-09 22:16:00,
2013-06-09 18:26:00,74.7,60.8,30.10,SE,134,0.0,15.0,62,0.00,,,0.00,Wunderground v.1.15,2013-06-09 22:26:00,
2013-06-09 18:31:00,74.6,61.6,30.10,SE,134,0.0,15.0,64,0.00,,,0.00,Wunderground v.1.15,2013-06-09 22:31:00,
2013-06-09 18:36:00,74.3,60.9,30.10,SE,134,0.0,15.0,63,0.00,,,0.00,Wunderground v.1.15,2013-06-09 22:36:00,
2013-06-09 18:46:00,73.9,61.0,30.11,SE,134,0.0,15.0,64,0.00,,,0.00,Wunderground v.1.15,2013-06-09 22:46:00,
2013-06-09 18:56:00,73.6,61.1,30.11,SE,134,0.0,15.0,65,0.00,,,0.00,Wunderground v.1.15,2013-06-09 22:56:00,
2013-06-09 19:06:00,73.3,60.8,30.11,SE,134,0.0,15.0,65,0.00,,,0.00,Wunderground v.1.15,2013-06-09 23:06:00,
2013-06-09 19:11:00,73.1,61.5,30.11,SE,134,0.0,15.0,67,0.00,,,0.00,Wunderground v.1.15,2013-06-09 23:11:00,
2013-06-09 19:21:00,72.5,61.3,30.12,SE,134,0.0,15.0,68,0.00,,,0.00,Wunderground v.1.15,2013-06-09 23:21:00,
2013-06-09 19:26:00,72.2,61.9,30.12,SE,134,0.0,15.0,70,0.00,,,0.00,Wunderground v.1.15,2013-06-09 23:26:00,
2013-06-09 19:36:00,71.2,62.1,30.12,SE,134,0.0,15.0,73,0.00,,,0.00,Wunderground v.1.15,2013-06-09 23:36:00,
2013-06-09 19:46:00,70.3,62.0,30.12,SE,134,0.0,15.0,75,0.00,,,0.00,Wunderground v.1.15,2013-06-09 23:46:00,
2013-06-09 19:51:00,69.9,62.0,30.12,SE,134,0.0,15.0,76,0.00,,,0.00,Wunderground v.1.15,2013-06-09 23:51:00,
2013-06-09 20:01:00,69.2,61.7,30.12,SE,134,0.0,15.0,77,0.00,,,0.00,Wunderground v.1.15,2013-06-10 00:01:00,
2013-06-09 20:11:00,68.7,61.6,30.12,SE,134,0.0,15.0,78,0.00,,,0.00,Wunderground v.1.15,2013-06-10 00:11:00,
2013-06-09 20:16:00,68.4,61.6,30.12,SE,134,0.0,15.0,79,0.00,,,0.00,Wunderground v.1.15,2013-06-10 00:16:00,
2013-06-09 20:26:00,67.8,61.4,30.12,SE,134,0.0,15.0,80,0.00,,,0.00,Wunderground v.1.15,2013-06-10 00:26:00,
2013-06-09 20:36:00,67.1,61.1,30.12,SE,134,0.0,15.0,81,0.00,,,0.00,Wunderground v.1.15,2013-06-10 00:36:00,
2013-06-09 20:46:00,66.5,60.5,30.13,SE,134,0.0,15.0,81,0.00,,,0.00,Wunderground v.1.15,2013-06-10 00:46:00,
2013-06-09 20:56:00,66.0,60.3,30.13,SE,134,0.0,15.0,82,0.00,,,0.00,Wunderground v.1.15,2013-06-10 00:56:00,
2013-06-09 21:06:00,65.5,60.5,30.14,SE,134,0.0,15.0,84,0.00,,,0.00,Wunderground v.1.15,2013-06-10 01:06:00,
2013-06-09 21:16:00,65.1,59.5,30.14,SE,134,0.0,15.0,82,0.00,,,0.00,Wunderground v.1.15,2013-06-10 01:16:00,
2013-06-09 21:21:00,65.0,60.4,30.14,SE,134,0.0,15.0,85,0.00,,,0.00,Wunderground v.1.15,2013-06-10 01:21:00,
2013-06-09 21:31:00,64.4,59.5,30.15,SE,134,0.0,15.0,84,0.00,,,0.00,Wunderground v.1.15,2013-06-10 01:31:00,
2013-06-09 21:41:00,64.1,59.2,30.15,SE,134,0.0,15.0,84,0.00,,,0.00,Wunderground v.1.15,2013-06-10 01:41:00,
2013-06-09 21:56:00,63.6,60.0,30.16,SE,134,0.0,15.0,88,0.00,,,0.00,Wunderground v.1.15,2013-06-10 01:56:00,
2013-06-09 22:01:00,63.3,59.4,30.16,SE,134,0.0,15.0,87,0.00,,,0.00,Wunderground v.1.15,2013-06-10 02:01:00,
2013-06-09 22:06:00,63.0,59.1,30.16,SE,134,0.0,15.0,87,0.00,,,0.00,Wunderground v.1.15,2013-06-10 02:06:00,
2013-06-09 22:11:00,62.8,58.9,30.17,SE,134,0.0,15.0,87,0.00,,,0.00,Wunderground v.1.15,2013-06-10 02:11:00,
2013-06-09 22:21:00,62.5,58.9,30.17,SE,134,0.0,15.0,88,0.00,,,0.00,Wunderground v.1.15,2013-06-10 02:21:00,
2013-06-09 22:36:00,62.0,59.0,30.17,SSE,160,0.0,15.0,90,0.00,,,0.00,Wunderground v.1.15,2013-06-10 02:36:00,
2013-06-09 22:46:00,61.9,58.9,30.17,SSE,159,0.0,15.0,90,0.00,,,0.00,Wunderground v.1.15,2013-06-10 02:46:00,
2013-06-09 22:56:00,61.7,59.0,30.16,SSE,159,0.0,15.0,91,0.00,,,0.00,Wunderground v.1.15,2013-06-10 02:56:00,
2013-06-09 23:06:00,61.4,58.7,30.16,SSE,160,0.0,15.0,91,0.00,,,0.00,Wunderground v.1.15,2013-06-10 03:06:00,
2013-06-09 23:16:00,61.0,58.7,30.17,SSE,159,0.0,15.0,92,0.00,,,0.00,Wunderground v.1.15,2013-06-10 03:16:00,
2013-06-09 23:26:00,60.7,58.7,30.17,SSE,159,0.0,15.0,93,0.00,,,0.00,Wunderground v.1.15,2013-06-10 03:26:00,
2013-06-09 23:31:00,60.5,58.5,30.17,SSE,159,0.0,15.0,93,0.00,,,0.00,Wunderground v.1.15,2013-06-10 03:31:00,
2013-06-09 23:41:00,60.3,58.3,30.17,SSE,159,0.0,15.0,93,0.00,,,0.00,Wunderground v.1.15,2013-06-10 03:41:00,
2013-06-09 23:51:00,60.2,58.5,30.17,SSE,159,0.0,15.0,94,0.00,,,0.00,Wunderground v.1.15,2013-06-10 03:51:00,